Theta_e
313 313 312 314 313 316 323 322 325 326 328 330 328 327 325 330 334 337 340 338 341 339 337 339 338 338 340 342 341 339 339 341 341 343 343 339 338 339 338 339 337 337 335 336 336 333 331 327 321 320 325 326 326 326 325 322 318 315 314 314 313 313 313 312 313 316 319 324 328 329 329 329 329 328 327 325 323 323 325 326 327 328 328 329 331 332 332 332 331 331 332 332 332 332 332 332 332
313 312 313 315 315 320 324 323 329 331 329 329 327 328 330 335 338 338 338 338 340 337 337 338 338 339 338 338 337 337 338 339 338 339 338 338 339 338 338 337 337 336 335 335 331 325 322 319 319 323 326 326 324 323 318 315 314 315 316 316 315 315 315 315 314 314 314 316 319 324 327 328 329 329 329 328 326 325 324 325 327 328 328 329 330 330 331 331 330 331 332 332 332 332 333 333 333
312 313 316 319 320 321 324 324 330 331 328 329 329 330 334 338 338 337 336 336 336 335 337 337 337 338 337 338 338 338 338 338 338 337 337 338 338 337 336 336 335 335 335 333 324 317 317 318 323 325 325 324 320 316 314 315 316 317 317 317 317 317 316 316 316 317 316 315 315 317 320 323 326 327 329 329 328 328 326 325 326 327 328 328 328 328 329 330 330 330 331 331 332 333 333 333 333
313 316 319 322 321 321 330 332 330 331 328 329 330 331 335 337 338 337 334 333 334 336 337 337 337 338 338 338 338 338 338 337 337 337 337 337 337 335 335 334 334 334 332 325 318 315 319 322 321 321 322 319 316 315 316 316 317 317 317 317 317 317 317 317 317 317 316 316 316 315 315 318 321 321 324 328 329 328 327 326 325 327 328 328 328 328 328 329 328 328 330 331 332 333 333 333 332
317 319 322 323 322 321 329 329 329 333 326 327 331 334 336 336 338 337 333 333 334 336 336 336 337 337 338 338 338 338 337 337 336 336 336 336 335 335 334 332 331 329 324 318 316 317 320 321 318 319 319 315 315 316 316 316 317 317 317 317 317 317 318 317 317 317 317 316 316 315 314 315 318 318 318 320 326 328 327 326 325 327 329 328 329 329 328 328 328 327 329 331 332 333 333 332 332
321 321 322 322 322 320 323 323 327 335 327 325 335 337 336 336 336 335 331 331 334 337 336 336 337 337 338 338 338 337 337 337 336 336 336 335 334 333 329 325 323 320 317 316 317 317 318 318 318 320 317 315 316 316 316 317 318 318 319 319 319 319 319 318 318 318 318 317 317 316 315 314 315 316 315 315 322 328 327 326 325 326 329 329 330 329 329 328 328 328 328 330 331 332 332 331 331
322 320 320 320 320 319 325 325 326 333 330 328 338 339 337 335 331 332 332 332 335 336 336 337 336 337 338 338 338 337 338 337 335 335 335 334 330 326 321 318 317 316 317 317 317 317 317 316 317 319 315 315 316 316 318 319 321 321 320 320 320 320 319 320 319 319 318 318 318 317 316 314 313 313 312 313 318 325 326 327 324 324 327 328 329 329 329 329 329 328 328 329 330 330 330 330 330
320 318 318 323 324 323 329 330 328 333 333 330 334 336 336 332 330 333 335 334 336 335 337 337 336 338 338 338 338 337 337 336 334 335 333 328 322 318 317 317 317 317 317 317 317 317 317 316 317 317 316 316 317 318 321 322 323 323 322 322 321 321 321 322 321 321 319 320 319 317 316 315 314 311 309 313 318 322 326 327 324 323 326 327 327 328 329 329 328 328 328 329 329 329 329 329 330
319 318 319 324 327 328 331 330 329 331 331 332 332 332 332 331 330 333 336 336 335 335 336 335 335 339 339 336 337 336 336 335 335 334 327 320 317 317 317 317 317 317 316 316 316 317 318 318 319 319 318 318 320 322 323 324 324 323 324 323 323 323 324 324 322 322 320 320 319 317 317 316 317 314 311 315 320 323 326 326 323 323 325 326 326 327 328 327 328 328 328 329 328 327 328 328 329
319 320 319 325 331 332 333 331 332 332 330 332 331 330 330 331 331 332 338 339 336 335 336 335 334 337 338 336 336 335 335 335 334 328 320 318 318 318 317 317 316 316 316 316 316 318 321 321 321 320 319 320 323 324 324 324 323 324 323 323 324 325 325 323 322 321 320 320 319 317 318 319 319 318 315 316 322 325 326 326 323 323 325 327 327 327 327 327 327 328 329 328 327 327 328 328 329
320 319 320 331 337 334 335 335 334 334 332 333 331 329 330 331 331 332 336 338 335 335 335 336 335 334 336 335 335 335 335 334 329 322 318 319 320 319 318 317 316 315 316 316 318 320 320 320 319 319 320 323 324 324 324 324 323 323 323 323 325 325 323 321 319 319 320 321 320 318 319 322 320 319 318 316 321 324 323 324 322 323 327 328 328 328 327 327 326 328 329 328 326 327 328 328 328
321 322 329 337 335 332 333 334 334 335 336 336 331 328 330 330 333 335 336 336 335 335 334 335 337 334 335 334 334 335 334 329 324 320 320 323 325 325 323 321 318 316 317 318 320 321 320 320 319 320 323 324 324 324 324 325 324 323 323 324 324 323 321 319 318 318 322 324 322 320 322 323 322 320 322 322 322 322 322 324 323 325 328 328 328 328 328 327 327 328 329 327 327 327 328 328 328
321 324 336 333 328 332 333 333 334 334 337 338 331 328 332 331 332 334 334 334 333 335 335 334 335 334 334 332 333 334 331 327 325 325 326 328 329 328 325 322 320 320 321 322 323 323 322 322 322 323 324 324 324 324 324 325 324 323 323 324 323 321 319 319 318 319 323 325 325 324 325 324 323 322 325 326 324 323 324 325 325 326 327 327 328 328 328 328 327 327 328 327 328 328 328 328 327
321 322 334 329 324 333 335 335 334 334 337 337 330 328 332 331 332 332 332 335 332 333 335 333 333 334 333 332 333 332 328 327 329 329 330 330 329 327 325 324 324 324 324 324 325 324 324 324 325 325 325 325 325 323 324 324 324 323 324 324 322 320 320 319 318 319 322 326 326 326 326 325 324 323 325 327 325 325 325 324 325 326 327 327 327 328 329 328 327 326 326 327 328 328 328 328 328
321 320 333 333 327 331 332 333 334 335 334 333 331 329 331 331 332 331 332 336 334 333 334 333 333 334 334 332 332 331 328 329 330 331 331 330 328 326 326 326 326 325 324 325 326 326 326 325 326 326 326 326 325 323 323 324 324 323 324 324 321 320 320 319 318 319 323 325 326 326 326 325 325 324 324 327 327 326 325 324 324 325 327 327 327 328 329 328 328 327 326 328 329 327 328 328 328
322 322 336 336 328 329 328 329 333 336 331 330 331 330 334 333 333 334 333 335 335 334 334 334 334 335 334 331 332 330 329 330 330 331 331 330 328 327 327 326 326 325 325 326 327 327 327 326 326 326 326 325 324 323 323 323 323 323 324 322 320 320 320 319 318 318 323 326 325 326 326 325 326 326 326 328 329 328 327 326 325 326 327 327 328 328 328 328 328 328 328 329 329 328 328 329 328
321 326 336 334 329 330 329 330 333 336 334 331 330 331 337 336 335 336 335 335 335 334 334 335 334 334 334 331 331 330 330 330 330 331 330 330 328 327 327 325 325 326 327 327 327 327 327 327 326 326 326 325 323 322 322 322 323 323 322 321 320 320 320 320 319 317 321 325 325 325 326 326 327 327 327 328 329 329 329 328 328 328 327 328 329 329 329 329 329 329 329 329 329 329 329 328 328
326 335 333 331 335 333 331 333 331 335 336 331 330 332 336 338 336 336 336 334 332 332 333 335 335 334 334 332 330 330 330 331 330 330 329 329 328 328 327 326 326 327 327 327 327 328 328 327 327 326 326 325 323 322 322 322 322 321 320 320 320 320 320 320 319 317 318 323 325 325 325 325 326 326 327 328 329 329 329 329 329 329 329 329 330 330 330 330 330 330 329 329 330 330 330 329 329
330 335 329 334 341 331 328 330 327 331 334 330 330 331 335 337 336 336 337 335 332 331 330 333 335 334 333 332 330 330 331 330 330 329 329 329 328 328 328 327 327 327 328 328 328 328 328 327 327 326 326 324 323 322 322 322 321 320 319 320 320 320 320 320 320 318 318 320 323 324 324 324 324 325 326 327 328 329 329 329 329 329 329 330 330 330 330 330 330 330 330 330 330 330 331 330 329
327 328 331 340 339 328 326 327 327 329 331 330 331 332 334 335 334 336 336 335 334 334 332 333 334 333 333 331 330 330 330 330 330 329 329 328 329 329 328 328 328 328 328 327 328 328 328 328 327 327 326 324 322 322 322 321 320 319 319 319 320 320 320 321 320 318 318 319 321 322 323 324 324 324 325 326 326 327 327 328 329 329 329 329 329 330 330 330 330 330 330 330 330 330 330 330 330
325 328 337 336 329 329 328 327 330 330 330 331 332 333 334 333 334 335 334 337 338 335 333 333 333 332 331 330 330 330 330 330 330 330 329 329 329 329 328 328 328 328 328 328 328 328 328 328 327 327 325 323 322 323 323 321 321 320 319 319 320 320 321 321 319 319 318 319 320 322 323 323 324 324 325 325 326 326 326 326 327 328 328 328 329 330 330 330 330 330 330 330 330 330 330 331 330
329 329 331 328 326 331 330 329 331 330 330 331 331 333 333 333 335 334 334 339 339 334 334 333 332 330 329 330 330 331 331 330 330 330 330 329 329 329 329 328 328 328 328 328 328 328 328 328 327 326 324 323 322 323 323 321 321 321 320 320 321 321 321 320 319 318 318 318 319 321 323 323 323 325 325 325 325 325 325 325 325 325 326 327 328 329 330 330 329 330 330 329 329 329 330 331 330
332 329 325 325 327 331 330 329 330 329 330 331 331 332 332 334 335 334 333 335 336 334 333 332 330 329 328 330 331 331 331 330 330 330 329 330 329 329 329 328 328 328 328 328 328 328 328 329 327 326 324 323 323 323 323 322 321 321 321 321 322 322 322 321 319 319 318 317 318 320 322 323 323 324 325 325 325 325 325 324 324 324 325 327 329 329 329 329 329 329 330 329 329 329 330 330 330
330 331 326 326 328 330 331 330 329 328 329 330 331 331 332 335 334 333 333 333 334 334 333 331 330 330 330 331 331 331 331 331 330 330 330 330 330 329 329 328 328 328 328 328 328 328 329 329 328 326 324 322 323 323 323 322 321 321 321 322 322 322 322 321 319 319 319 318 317 319 320 321 322 322 323 324 324 324 324 324 323 324 326 327 329 329 329 329 328 329 329 329 328 329 330 330 329
330 332 327 327 329 330 330 330 329 329 329 330 330 331 331 334 334 334 335 335 334 333 332 331 331 331 331 331 331 331 331 331 331 331 331 331 330 330 329 328 328 328 328 328 328 329 329 329 328 325 323 323 322 323 323 323 321 321 322 322 322 322 322 322 321 319 319 319 319 319 319 319 319 318 319 320 322 324 324 324 323 324 326 327 328 329 329 328 328 329 329 328 327 328 330 330 329
328 328 326 327 329 329 330 330 329 329 330 331 331 332 332 333 334 334 335 335 334 333 332 332 331 331 332 331 332 332 332 331 331 331 331 330 330 329 328 328 328 328 328 328 329 329 329 330 327 323 322 322 322 323 323 322 322 322 322 322 322 322 322 322 322 321 320 320 320 320 319 319 318 316 315 316 320 322 323 323 322 323 325 326 327 327 327 328 327 328 328 327 325 326 328 329 329
326 326 326 328 329 329 329 329 329 330 330 331 333 334 333 331 334 336 335 335 333 332 332 332 332 332 332 332 332 332 332 331 331 330 330 330 330 329 328 328 327 328 328 329 330 329 330 330 326 322 322 322 322 322 322 322 322 322 322 322 322 323 322 323 323 322 321 321 320 320 320 319 319 317 315 315 317 320 321 322 322 323 324 325 325 325 326 327 327 327 326 326 324 323 326 329 329
326 327 328 326 328 328 328 329 328 329 330 331 333 334 332 331 335 337 335 334 333 332 332 332 333 332 332 332 332 332 331 331 331 331 331 330 330 329 328 328 327 328 329 329 330 330 330 329 325 322 322 322 322 322 322 322 322 322 322 321 322 323 323 323 323 323 321 321 321 320 320 320 319 317 315 315 317 319 320 321 322 322 323 324 324 324 324 325 326 326 326 325 324 323 324 327 328
325 328 332 329 331 330 327 329 329 327 331 331 331 332 335 334 334 336 335 334 333 332 333 333 333 333 332 333 332 332 332 332 332 331 330 330 330 329 328 328 328 329 330 330 330 330 330 330 325 322 322 322 322 323 322 322 321 321 321 321 322 322 323 322 323 323 321 320 320 320 320 320 319 317 315 316 318 318 318 320 321 322 322 323 323 323 323 323 324 325 325 325 325 324 322 324 327
327 330 337 338 337 334 326 328 330 328 330 331 330 332 337 337 331 333 336 334 333 333 333 333 333 333 332 333 332 332 332 332 332 331 331 331 331 330 329 328 329 331 331 330 330 330 330 330 325 321 322 322 322 323 323 322 321 321 321 322 322 322 322 322 322 322 321 319 319 320 320 320 319 316 315 317 318 318 318 318 319 320 321 322 322 322 322 321 322 324 325 324 324 324 322 321 325
335 330 335 342 337 334 329 327 329 329 329 330 333 334 339 340 331 333 336 334 334 334 334 334 333 333 333 333 333 332 332 333 332 332 332 331 331 330 329 329 330 331 331 330 331 330 330 331 326 321 322 322 323 324 323 323 323 323 323 323 323 322 322 322 322 322 321 320 320 320 320 320 318 315 314 317 318 318 317 318 318 319 320 320 321 321 322 320 320 322 324 324 324 324 322 320 324
340 332 335 339 332 333 332 327 328 331 329 327 332 335 337 338 331 331 336 335 334 334 334 334 333 333 333 334 334 332 332 333 333 332 332 331 330 330 330 331 331 332 331 331 331 331 331 330 326 321 322 323 323 324 324 324 324 324 324 325 324 323 323 323 323 323 322 320 320 321 321 321 318 315 314 316 317 317 317 317 317 318 318 319 319 319 320 319 319 321 323 324 323 323 322 319 324
341 334 336 336 331 333 331 327 327 328 330 328 328 334 337 335 328 330 335 335 335 334 334 334 334 334 334 334 334 334 333 332 331 331 331 330 330 330 331 331 332 332 332 331 331 331 331 330 325 321 322 323 323 325 326 325 325 324 324 325 324 323 324 324 323 323 321 320 321 321 321 321 320 318 316 315 316 317 317 317 317 318 318 318 318 318 318 319 320 321 322 323 322 322 320 318 323
338 334 335 334 331 332 331 331 328 325 331 332 328 332 338 335 329 328 333 335 334 334 334 333 333 333 333 334 334 334 333 332 330 329 330 330 330 330 331 332 332 332 332 331 331 330 331 329 323 321 321 322 323 325 326 325 324 324 325 325 325 325 325 324 323 322 320 321 321 321 321 322 322 320 319 317 316 315 316 316 316 316 317 317 318 318 318 320 321 321 321 321 320 319 318 319 324
340 338 337 332 329 329 330 333 330 327 332 333 329 331 335 335 329 326 330 334 334 333 334 333 333 333 333 333 333 333 332 331 330 329 330 330 330 330 331 331 331 332 332 331 330 330 331 328 323 321 321 323 324 325 325 324 323 323 324 325 325 326 326 325 323 321 320 320 321 321 321 322 322 322 321 320 318 316 315 315 315 314 315 316 317 318 319 321 322 321 321 320 319 317 317 322 326
341 342 341 336 329 328 331 331 330 328 330 332 332 334 336 336 332 328 328 332 333 333 333 332 333 333 333 332 332 332 331 330 329 329 330 330 330 331 331 331 331 331 331 331 330 330 330 328 323 321 321 322 324 325 324 322 321 322 323 324 326 326 326 325 323 322 320 321 320 321 321 322 323 322 322 322 320 318 316 315 314 313 312 314 316 318 319 321 321 322 321 319 318 317 318 323 327
335 336 338 334 328 328 331 329 327 327 330 331 330 332 334 333 332 328 327 330 332 331 331 331 331 332 332 332 331 331 330 330 329 329 330 330 330 330 331 331 331 331 331 330 329 329 329 327 324 322 321 321 322 322 321 320 320 322 323 324 326 326 325 325 324 323 322 321 321 320 321 322 323 323 323 322 322 320 318 316 315 313 311 310 313 316 319 320 320 321 320 319 318 317 320 324 327
335 335 333 330 329 330 330 328 328 327 329 331 328 330 331 329 330 326 325 330 331 330 331 330 330 331 331 331 331 330 330 329 330 330 329 330 330 330 331 331 330 330 330 329 329 329 328 326 325 323 323 322 321 320 320 320 321 323 324 325 326 325 325 325 325 324 323 322 321 321 321 322 322 323 323 323 323 321 320 319 316 315 313 310 310 314 317 319 320 320 320 320 318 317 320 325 326
336 332 329 329 330 331 327 325 327 326 328 332 329 328 329 329 331 328 325 328 330 329 330 330 330 330 329 330 329 329 329 329 329 329 329 330 330 330 331 330 330 330 329 329 329 329 327 324 324 323 323 322 320 320 320 321 323 325 325 325 325 326 325 325 325 325 325 324 323 322 322 322 322 323 324 324 323 322 321 320 319 317 315 314 311 312 315 318 319 320 320 320 319 317 317 322 326
333 332 330 331 330 331 330 325 325 326 326 329 329 330 334 333 331 328 325 325 328 328 329 329 329 329 329 328 328 328 328 328 328 328 328 329 329 330 330 330 330 330 330 330 329 328 326 324 323 322 322 322 320 320 320 321 323 325 326 325 325 325 325 324 325 326 326 326 325 324 323 323 322 323 324 324 324 323 322 322 321 319 317 316 315 313 314 315 317 319 319 320 320 318 316 317 321
331 331 332 334 332 332 332 327 325 326 324 327 330 335 344 344 333 331 328 324 326 327 327 328 327 327 328 327 327 328 328 328 328 328 328 329 329 329 330 330 330 330 330 330 329 327 325 324 323 322 322 322 321 320 321 322 323 324 325 326 326 325 325 325 326 326 326 326 325 324 324 323 323 323 324 325 325 324 323 323 322 321 319 318 318 316 314 313 314 315 316 316 317 318 317 317 317
331 329 330 331 331 331 329 328 328 326 326 330 330 332 343 349 338 335 334 327 326 326 323 325 327 326 326 327 328 328 328 328 328 328 328 329 329 329 330 330 330 330 330 330 329 328 326 325 324 323 323 322 321 321 321 322 323 324 325 326 326 325 326 326 326 326 326 326 325 324 324 324 324 324 324 324 325 324 324 323 323 323 322 320 319 319 318 316 315 314 314 313 312 313 315 318 318
328 330 330 326 328 332 328 328 330 330 330 330 331 333 338 344 340 337 335 330 330 327 324 324 324 325 326 326 328 327 328 328 328 328 329 328 329 329 330 330 330 330 330 331 330 329 327 326 324 323 323 323 322 322 322 323 323 324 326 327 326 326 326 327 327 327 327 327 327 326 325 324 324 324 325 325 325 325 325 324 324 324 323 323 322 321 320 319 318 317 315 313 312 311 312 315 318
330 332 329 324 327 330 328 328 333 334 331 330 336 336 330 336 342 336 331 330 330 330 328 326 322 324 326 326 327 327 327 328 328 328 328 327 328 329 329 330 331 331 331 331 331 329 327 325 323 323 322 323 323 323 323 324 324 325 327 328 327 326 326 326 326 326 327 327 327 327 326 325 324 324 325 325 325 325 325 325 324 324 324 324 324 323 322 321 320 320 318 316 315 314 313 313 315
332 328 325 325 327 329 328 328 334 336 329 329 336 332 326 338 347 334 327 328 330 332 333 329 323 323 325 326 327 327 327 328 328 328 327 326 327 328 329 329 331 331 331 332 331 330 327 324 323 322 322 323 323 323 324 324 325 326 327 328 328 327 327 326 326 326 326 326 326 326 325 325 324 324 324 325 325 325 326 326 325 325 324 324 325 325 324 323 322 322 321 320 318 316 315 314 314
326 322 325 328 328 330 330 329 335 336 330 330 334 329 328 339 346 334 327 330 333 334 333 328 323 323 325 326 326 327 328 328 328 328 327 327 327 328 329 330 331 331 331 332 331 330 327 324 323 322 322 323 323 323 324 324 325 326 327 328 328 327 325 325 325 325 324 324 324 324 324 323 323 322 322 323 324 324 325 326 326 325 325 324 325 325 325 325 324 323 323 322 321 319 317 316 315
322 327 330 329 332 336 339 341 337 330 333 336 333 330 328 333 343 338 330 334 336 332 331 328 324 323 325 327 327 327 328 328 328 328 328 328 328 328 329 330 330 331 331 331 330 329 328 325 323 322 323 323 324 324 324 325 325 327 327 328 327 325 324 324 322 322 322 321 322 322 322 322 322 321 321 321 321 322 323 324 324 324 323 324 324 324 325 325 325 325 325 324 323 322 320 318 316
327 334 331 328 333 335 337 341 334 327 335 336 330 330 327 329 342 344 335 335 335 332 333 333 327 324 325 327 327 327 328 328 328 328 329 329 329 329 329 330 330 331 331 330 329 328 328 326 324 323 323 324 325 324 325 325 325 326 327 327 326 323 322 321 321 321 320 320 320 321 321 321 321 321 321 321 321 321 322 323 323 323 323 323 324 324 324 325 325 325 326 325 324 324 323 321 319
328 332 332 329 330 331 332 334 332 331 333 329 328 330 326 328 339 340 336 333 330 328 328 328 325 323 326 327 327 328 328 329 328 329 330 329 330 329 328 329 330 332 332 329 328 327 326 325 324 323 324 325 325 325 325 325 325 325 326 325 323 322 321 321 322 322 321 321 321 321 322 322 322 322 322 322 322 323 324 325 325 326 326 326 326 326 326 326 326 326 326 326 325 325 325 324 323
327 328 331 330 330 330 329 330 330 331 330 326 328 329 327 331 332 330 332 327 323 323 322 324 326 324 326 326 327 328 328 328 328 329 330 329 330 330 329 329 329 331 333 330 327 327 326 325 324 324 325 326 326 327 326 325 324 324 324 323 321 321 322 323 324 325 324 324 324 324 325 324 324 324 323 324 324 325 326 327 327 327 327 327 327 327 327 327 327 327 327 327 326 326 326 325 325
324 327 326 327 335 335 329 330 332 332 331 328 325 325 329 333 329 325 323 319 319 321 322 323 324 325 326 326 327 328 328 328 328 329 330 330 330 330 330 329 329 331 333 330 328 328 328 326 326 325 325 326 328 328 327 325 324 323 322 321 320 321 323 323 325 326 326 326 327 327 326 325 325 324 325 325 326 326 327 327 327 328 328 328 328 328 328 327 327 327 327 327 327 327 327 327 326
321 324 324 323 332 338 329 326 333 334 332 331 326 327 335 334 329 325 320 319 321 320 321 323 324 324 324 324 326 327 328 328 328 329 330 330 330 330 331 330 329 330 332 330 329 329 329 329 327 326 325 326 327 327 325 324 322 321 320 320 320 322 323 323 324 325 325 326 326 327 326 325 324 324 325 326 326 327 327 327 327 328 328 328 328 328 328 328 328 328 328 327 327 327 327 327 327
324 321 325 325 326 335 331 321 328 331 327 329 326 328 337 332 326 327 325 325 325 320 321 322 323 324 324 324 326 326 328 328 328 330 330 330 331 330 332 330 327 329 331 330 329 329 330 330 328 326 325 325 324 322 320 320 320 319 319 319 320 321 322 323 324 324 325 326 326 326 325 324 325 325 326 326 327 327 328 328 328 328 329 328 329 329 328 328 328 328 328 328 328 328 327 327 327
329 324 325 324 319 329 333 325 328 328 324 331 328 326 334 331 329 333 328 326 325 322 324 322 321 324 324 325 326 326 328 327 328 330 330 330 331 331 332 328 323 328 331 329 328 329 329 330 328 326 326 324 321 320 319 318 318 318 318 319 319 321 321 322 323 324 324 325 325 325 325 325 326 326 327 327 328 328 328 329 329 329 329 329 329 329 329 329 329 329 329 328 328 328 328 328 327
326 326 323 323 321 324 325 324 329 325 322 331 330 325 330 331 336 338 328 328 328 324 326 327 325 324 323 325 326 326 328 328 328 330 330 330 331 331 331 325 322 328 330 328 327 327 328 329 327 325 324 323 322 321 320 319 318 317 318 319 320 321 321 322 323 323 324 325 326 327 327 328 328 328 329 329 329 329 329 329 329 329 329 330 330 330 330 330 330 329 329 329 329 329 328 328 328
321 324 322 325 333 331 324 324 327 326 325 328 327 326 330 333 338 341 331 331 331 325 329 331 325 322 324 325 326 327 328 328 329 330 330 331 331 331 331 324 322 326 328 327 327 327 327 327 325 323 322 323 323 322 320 319 318 319 319 319 320 320 321 322 323 323 325 326 327 328 329 329 329 330 330 330 330 330 330 330 330 330 330 330 329 330 330 330 330 330 330 330 329 329 329 329 328
324 325 323 325 327 324 322 322 322 325 330 332 329 327 335 339 335 335 333 331 329 327 330 328 321 321 325 325 325 327 327 328 329 330 330 330 331 332 330 324 322 325 326 328 328 327 326 325 323 322 323 325 324 322 321 320 320 320 320 320 321 321 322 323 324 325 327 328 328 329 329 329 330 330 330 330 330 330 330 330 330 329 330 329 329 330 330 330 330 330 330 330 330 330 329 329 329
336 334 329 331 330 324 325 322 321 326 328 332 334 329 339 345 331 328 332 330 325 323 323 322 320 321 324 325 326 326 327 327 329 330 330 330 332 332 329 324 322 323 324 326 328 326 324 323 323 324 325 326 325 324 323 323 322 322 321 321 321 322 323 325 326 327 328 329 329 329 330 329 330 330 330 330 330 330 330 330 330 329 329 329 329 329 329 329 330 330 330 330 330 330 329 329 329
Wind_Speed
6 6 6 6 7 10 7 5 3 2 2 2 1 0 1 2 1 2 5 3 1 3 7 8 9 8 7 7 9 9 6 2 3 2 3 5 8 10 8 5 7 7 5 4 2 2 2 3 3 5 7 7 6 6 6 6 7 7 8 8 8 9 9 8 8 8 7 7 7 6 7 6 6 6 6 6 5 4 2 2 3 3 3 3 3 4 4 4 4 4 3 3 3 4 4 4 4
8 8 8 9 9 8 4 3 2 2 4 2 2 1 2 3 3 1 3 2 1 2 4 6 11 13 10 10 10 7 7 4 2 4 7 9 10 10 9 7 7 6 5 3 2 3 3 3 4 6 7 6 6 6 7 8 8 9 9 10 10 10 10 10 9 9 8 7 6 6 6 6 6 6 5 5 6 5 4 2 3 3 3 3 3 4 4 4 4 4 3 3 3 3 3 3 4
9 9 10 10 7 6 3 3 2 1 4 1 3 2 1 2 1 2 3 2 4 5 3 2 5 8 6 7 7 4 4 5 6 7 10 11 10 10 9 7 6 6 5 3 3 4 4 4 6 6 6 5 6 7 8 9 9 9 10 10 10 10 10 10 10 9 9 8 7 6 5 5 5 5 5 5 5 4 5 4 3 3 4 3 3 4 4 4 3 4 3 3 3 3 3 3 3
10 10 10 7 4 4 3 3 2 4 3 2 2 3 1 1 2 2 2 4 7 7 4 4 5 7 7 6 6 5 4 5 7 9 11 11 10 10 8 7 7 6 5 4 4 4 5 6 6 6 6 6 7 8 9 9 9 9 9 9 9 9 10 10 9 9 8 7 7 6 6 5 5 4 4 5 4 4 4 4 3 3 4 3 3 3 3 3 3 3 3 3 3 3 4 3 3
9 9 7 2 1 2 3 3 2 4 3 3 2 3 2 2 3 2 3 5 8 8 7 8 4 6 9 7 4 3 4 5 7 8 10 10 9 9 8 8 7 7 6 5 5 5 6 7 7 6 6 7 8 8 9 10 10 10 10 10 10 10 10 9 9 8 7 7 7 6 6 5 6 4 3 3 4 3 3 4 3 2 3 3 3 2 2 3 3 3 2 3 3 3 4 3 3
10 8 4 2 2 2 3 3 2 2 3 4 2 4 3 3 2 2 3 5 9 8 7 8 4 3 7 6 5 5 4 3 5 7 9 9 9 8 8 9 8 8 7 6 7 7 8 7 7 7 7 8 9 9 10 11 12 12 11 11 11 10 10 10 9 8 7 7 6 6 5 5 5 4 4 3 2 3 2 3 4 4 3 3 3 3 2 2 2 3 3 3 3 4 5 4 3
8 5 3 4 3 3 3 3 3 2 2 4 4 3 4 3 1 2 3 3 8 9 9 11 7 4 4 4 5 4 2 2 5 7 9 9 9 9 9 9 8 8 8 8 8 8 9 8 7 8 8 9 10 11 12 12 13 13 12 12 11 10 11 12 11 10 9 8 8 6 5 5 4 4 4 3 1 3 2 2 3 5 4 4 4 3 2 2 2 2 3 3 3 4 4 4 3
4 1 1 3 3 4 4 3 2 2 2 3 3 3 4 2 0 1 2 1 2 4 7 9 8 6 2 2 3 2 1 4 6 7 9 9 10 10 10 9 9 9 9 10 9 9 9 9 9 9 9 10 11 12 13 13 14 13 13 12 11 11 11 12 13 12 11 10 9 7 6 5 5 4 3 2 1 2 2 2 2 4 4 4 4 3 2 2 2 2 3 3 3 3 3 4 4
3 1 1 3 2 3 3 2 0 2 3 2 2 4 3 1 1 2 2 3 3 3 2 2 5 6 1 3 3 3 5 6 7 8 9 9 10 10 10 10 10 10 10 10 9 8 8 9 9 9 10 12 13 13 13 14 14 14 13 13 12 12 12 12 13 12 11 10 9 7 6 6 6 5 2 1 1 2 2 2 3 4 5 3 3 3 3 2 2 3 3 3 3 4 4 3 4
3 2 2 3 3 3 2 0 1 2 3 2 1 4 2 1 2 3 3 3 4 4 2 4 4 7 7 4 2 4 6 8 9 10 9 10 10 11 11 11 10 9 9 8 8 8 8 8 8 9 11 12 13 13 13 14 14 13 13 13 12 13 12 12 13 13 11 10 9 6 5 6 6 5 3 1 1 1 0 1 3 4 4 3 2 3 3 3 3 3 3 4 4 4 4 3 4
2 2 3 3 3 2 1 2 2 3 4 3 2 3 1 2 3 3 3 3 4 4 6 7 3 10 11 4 1 4 8 10 10 10 10 11 11 11 11 11 10 9 8 8 9 9 8 9 10 11 12 13 13 13 13 13 14 13 12 13 13 14 14 14 14 13 12 10 9 6 4 4 5 5 4 2 1 1 1 1 2 3 2 2 2 2 3 2 2 3 4 4 4 4 4 3 3
2 2 4 4 2 2 2 2 2 4 4 3 1 3 3 4 3 2 3 4 4 3 2 5 6 11 9 3 3 7 11 11 11 11 11 12 11 11 10 10 9 9 8 9 9 10 10 11 12 13 13 12 13 13 13 13 14 13 13 14 14 14 14 15 14 12 10 10 9 6 3 3 4 5 5 4 2 0 1 1 1 1 0 1 1 2 2 2 3 3 4 4 5 4 3 3 3
1 1 4 3 2 3 3 2 2 3 3 2 2 3 4 3 3 6 6 4 4 2 1 5 11 12 6 2 7 11 13 13 12 13 12 11 10 10 10 9 8 8 9 10 11 11 12 13 13 13 12 12 13 13 14 14 13 13 13 14 13 13 14 16 15 11 8 8 9 6 3 3 4 4 4 5 3 1 1 2 2 1 2 2 2 2 3 3 3 3 3 4 4 4 3 3 4
1 2 4 3 1 2 4 2 1 1 3 4 3 5 5 2 3 8 7 3 1 1 1 12 15 10 5 4 7 14 16 14 14 13 11 10 9 9 9 8 8 8 9 10 12 13 12 13 13 13 13 14 15 14 14 13 12 12 12 13 12 13 16 18 16 12 7 6 8 6 4 4 4 2 3 3 3 2 2 2 2 2 3 3 3 3 4 3 3 3 3 3 4 4 4 3 4
1 2 4 3 2 1 3 2 2 3 3 3 5 6 5 3 3 7 5 3 1 1 7 14 12 5 6 7 8 18 18 15 14 11 11 10 9 9 8 8 7 7 9 10 12 12 12 13 13 14 14 15 15 14 14 12 11 10 10 11 11 13 16 19 18 13 8 6 6 5 5 5 5 2 1 2 3 3 2 2 2 2 3 3 3 3 4 3 4 4 3 3 4 4 5 4 4
3 3 4 3 2 1 2 2 2 3 3 3 6 7 5 4 5 5 3 3 4 7 8 6 7 3 6 10 10 19 19 14 13 11 10 9 9 9 8 7 6 7 9 9 10 11 12 13 13 14 15 15 15 14 13 11 9 9 10 10 11 13 16 19 19 13 7 6 5 5 6 5 4 2 2 2 3 4 3 4 3 2 2 2 3 4 4 4 4 5 5 5 5 5 5 5 4
4 3 4 2 2 3 3 3 3 3 3 3 7 8 4 3 5 5 4 6 8 10 5 1 7 5 4 7 13 20 18 14 13 11 11 10 9 8 7 7 6 7 8 9 10 11 11 12 13 14 15 15 15 13 10 9 9 9 10 10 11 14 16 19 20 15 8 5 5 5 5 6 5 3 3 3 3 4 4 4 4 3 2 3 4 5 5 5 5 5 5 6 7 6 6 6 5
2 2 3 1 2 4 4 5 5 3 3 4 7 7 5 4 5 7 7 6 7 7 3 4 9 10 5 8 17 20 16 14 13 12 12 11 10 8 7 6 6 7 8 8 9 10 10 11 12 14 15 14 13 11 9 8 9 10 11 11 12 14 16 18 20 18 10 5 5 5 5 5 5 4 4 4 4 4 3 3 3 3 3 4 4 5 6 6 6 6 5 6 7 7 7 7 6
2 3 2 2 4 4 3 6 6 2 5 7 7 6 6 5 5 6 5 4 7 7 2 6 7 8 8 14 19 18 16 14 13 13 12 10 8 6 5 6 6 7 7 6 7 9 10 11 13 14 15 14 11 9 8 8 9 10 11 11 12 13 15 18 19 19 14 7 5 5 5 5 5 4 4 4 4 4 4 3 3 4 4 4 4 4 5 6 7 6 6 6 6 7 7 7 7
1 3 1 4 4 3 2 4 6 4 10 11 7 7 6 5 5 4 5 5 4 6 6 7 11 13 15 19 19 17 16 14 14 13 11 8 6 4 4 5 6 6 5 5 7 9 10 11 13 13 14 13 9 7 7 8 8 9 10 11 13 13 14 17 19 19 17 11 7 6 6 5 5 4 4 3 3 3 4 3 3 4 5 6 5 4 5 5 6 6 6 7 7 7 7 7 6
1 3 2 4 4 3 1 3 6 8 13 13 11 9 7 5 5 5 8 6 1 4 8 9 14 20 21 21 19 17 16 15 15 13 11 8 5 3 3 3 4 4 4 5 7 9 10 12 12 12 13 11 8 6 6 7 7 8 9 11 13 13 13 17 20 20 18 13 9 8 6 5 5 4 3 3 4 4 5 4 4 4 6 6 6 5 5 5 6 6 7 7 8 8 7 8 7
1 2 4 4 5 3 2 6 9 11 13 14 12 9 7 5 5 9 9 3 2 6 8 12 19 23 22 22 19 18 17 16 15 13 11 7 4 2 2 2 1 2 3 5 7 8 9 11 11 11 11 10 7 6 6 5 5 6 8 10 12 13 13 17 20 21 21 16 10 8 7 7 6 5 4 4 4 5 6 6 6 6 6 6 6 6 6 6 7 7 7 8 9 8 8 8 8
1 3 2 4 5 3 5 9 11 12 14 12 10 9 9 9 6 7 4 1 5 8 10 17 22 22 22 21 20 19 18 17 15 12 9 6 3 1 1 1 1 1 2 4 7 8 9 10 10 11 11 8 6 6 5 4 4 5 7 9 12 13 14 16 20 22 22 19 13 9 8 8 8 7 5 5 5 5 6 7 8 8 6 5 5 6 6 7 7 7 7 9 10 9 9 9 9
2 3 1 3 3 5 8 9 10 11 12 11 11 10 9 9 6 3 3 4 8 8 13 20 21 21 21 20 19 18 16 15 13 10 8 5 3 2 1 1 2 2 2 3 6 7 8 10 10 10 10 7 5 5 4 3 3 4 7 8 11 13 14 15 18 20 22 22 18 13 11 9 9 8 7 6 6 5 5 6 7 7 5 4 4 5 6 7 7 6 7 9 10 10 10 11 11
1 1 1 3 4 7 8 9 10 10 12 12 12 9 7 9 8 4 5 8 8 11 17 20 20 20 19 18 18 16 14 13 11 10 7 5 4 5 4 4 4 3 3 3 5 7 8 9 9 10 9 6 4 3 3 2 2 3 6 8 11 14 14 15 17 18 19 20 19 18 15 14 13 11 9 7 5 4 4 5 6 5 4 4 4 4 5 6 7 7 7 8 9 10 10 11 12
0 2 3 5 6 8 9 9 10 10 10 13 10 7 9 11 7 3 4 10 11 15 20 20 20 19 18 17 16 15 13 12 10 9 6 6 7 7 6 5 4 3 3 3 5 6 7 8 9 9 7 5 4 3 2 2 1 2 5 7 11 13 14 15 16 17 18 18 18 17 17 16 16 15 12 8 4 3 3 4 5 4 3 2 3 4 4 5 5 6 6 7 9 8 8 10 12
5 8 8 7 8 9 8 7 8 8 8 12 10 6 8 7 3 1 5 12 15 19 21 20 20 19 18 16 15 14 12 11 10 8 8 9 9 8 7 6 4 2 3 3 4 5 6 7 8 8 6 5 3 3 3 1 1 1 4 7 10 12 13 14 15 16 17 17 18 18 17 16 16 17 14 10 6 3 3 3 4 4 3 2 3 4 5 5 5 5 5 6 8 8 7 8 11
11 14 10 7 8 8 7 6 6 5 4 13 14 7 3 2 2 5 10 15 17 20 20 19 19 17 16 15 14 13 12 11 10 11 11 10 9 8 7 5 3 2 2 2 4 4 6 7 8 8 6 4 3 3 3 2 1 2 4 7 9 12 13 13 14 15 16 16 17 18 18 17 16 18 15 11 9 6 4 2 2 3 3 3 3 4 5 5 5 5 5 6 7 8 7 6 8
8 10 7 4 6 5 4 5 5 2 3 14 13 4 4 4 2 9 14 17 18 19 20 19 18 17 16 14 14 13 12 12 13 13 12 10 8 8 7 5 4 3 2 2 3 4 5 7 8 7 5 3 2 3 3 2 2 2 4 6 9 11 12 13 13 14 14 15 16 17 18 17 17 18 15 11 11 9 6 4 2 3 3 4 4 4 5 5 4 4 5 5 6 7 7 6 6
4 5 4 2 5 2 2 3 5 2 4 13 6 3 3 5 2 10 15 18 18 19 19 19 17 17 16 15 15 14 13 14 14 13 11 10 9 8 7 6 5 3 3 3 3 4 5 7 8 6 4 2 2 3 3 3 3 3 4 7 9 11 12 13 13 13 13 14 16 17 18 17 18 19 15 11 11 10 8 6 4 3 4 4 5 5 5 5 4 4 5 5 5 6 7 7 6
3 3 3 2 3 1 4 1 6 3 3 10 2 3 4 6 3 10 15 17 18 19 18 18 17 17 17 16 15 15 15 14 13 12 11 10 9 9 8 7 6 4 4 3 3 3 5 6 7 5 3 2 3 3 4 4 4 4 4 6 8 9 11 11 11 12 13 13 15 17 18 18 19 19 16 12 11 10 9 8 7 6 5 5 6 6 5 6 5 4 4 5 6 6 8 7 6
3 2 2 3 3 2 6 1 7 4 2 5 2 2 4 6 5 11 16 17 17 17 17 17 17 16 16 16 16 15 14 14 13 11 11 10 9 9 8 8 7 6 5 4 3 4 4 5 5 4 2 1 2 3 3 3 4 4 4 5 6 8 9 10 10 11 12 12 14 15 17 18 20 21 18 14 11 10 9 8 8 7 7 7 7 7 6 7 6 5 4 5 6 7 7 7 6
4 3 1 2 2 1 3 1 5 7 4 1 2 2 2 4 5 11 16 17 18 16 15 16 16 16 16 16 16 16 15 14 12 11 10 10 9 8 9 8 7 6 5 5 4 4 4 5 4 3 2 1 1 2 2 2 3 3 3 4 6 7 8 9 10 10 11 11 13 14 16 18 20 21 20 17 14 12 10 9 8 8 7 7 7 8 6 5 5 5 5 5 6 7 7 5 5
4 3 1 2 1 0 1 3 3 6 5 0 2 1 4 5 4 9 16 18 18 16 16 17 17 17 17 17 17 17 16 15 13 11 10 10 10 9 9 8 8 7 6 6 4 3 3 3 2 2 2 2 1 2 3 3 3 3 4 4 5 6 7 8 9 10 10 10 12 13 15 18 19 21 21 20 19 16 14 12 10 8 7 6 6 6 5 4 4 5 5 5 6 6 5 4 4
2 1 1 1 1 2 3 3 4 6 4 3 3 2 7 7 5 7 16 18 18 19 19 18 18 18 18 18 18 17 17 17 14 11 10 11 10 9 9 8 8 7 6 7 5 3 3 3 2 2 2 2 2 2 3 3 4 4 5 5 5 6 7 8 8 9 10 10 11 13 15 17 18 19 21 21 21 20 18 16 14 11 7 4 3 3 3 3 4 5 6 7 8 8 5 4 4
5 5 4 3 2 3 4 4 5 7 5 3 5 4 7 6 5 6 14 18 18 19 18 17 18 19 19 19 19 19 19 19 15 12 12 11 11 10 9 9 8 8 7 7 6 5 4 4 2 2 2 2 2 3 3 3 3 4 5 5 5 5 6 6 7 8 9 9 11 12 14 15 17 18 20 21 21 21 21 20 18 16 11 5 2 2 3 3 4 5 6 7 9 9 6 4 4
5 5 4 3 3 3 4 3 4 8 5 3 6 5 7 7 5 6 12 14 15 16 14 16 18 19 20 21 21 20 20 19 16 14 14 13 12 11 10 10 9 9 8 8 7 5 4 4 3 2 1 2 2 3 3 2 3 4 4 4 4 5 5 5 5 7 8 9 10 12 13 14 16 17 18 20 21 21 21 22 22 22 18 12 5 4 4 4 4 5 6 7 8 7 6 5 4
5 5 3 2 3 4 4 2 5 8 4 3 4 4 8 8 6 5 8 9 12 17 16 17 20 19 20 22 23 23 21 20 19 17 16 15 14 12 11 11 10 9 9 8 7 5 4 4 4 2 1 2 2 2 2 2 3 4 4 4 5 5 5 5 4 6 7 9 10 11 12 13 15 16 17 18 20 20 21 22 24 25 24 20 12 6 5 5 5 5 6 7 9 8 7 6 4
4 3 3 2 3 3 3 2 4 7 3 2 4 5 7 8 5 5 9 11 15 20 21 21 20 19 21 22 23 22 21 20 20 19 17 16 15 14 13 12 11 9 8 8 7 5 4 4 4 3 1 1 2 1 1 1 2 3 4 5 5 5 5 5 4 5 6 9 10 11 12 13 14 15 16 17 18 19 20 21 23 24 26 25 19 11 6 4 4 6 7 8 9 9 7 7 5
3 3 4 2 3 2 1 1 3 4 1 1 5 4 5 5 4 4 10 15 16 16 18 20 19 19 21 21 21 20 19 19 18 17 16 16 16 15 14 12 10 10 8 8 7 6 4 4 4 3 1 1 2 1 0 1 2 3 4 5 6 6 6 5 5 5 6 8 9 10 11 12 12 13 14 16 16 18 19 20 22 23 24 25 24 20 13 8 6 5 6 7 8 8 8 7 6
2 4 5 3 3 3 2 3 4 1 1 2 5 2 5 3 2 5 6 9 12 13 13 16 18 19 20 19 20 19 18 18 15 13 12 14 15 15 13 11 10 10 9 7 6 6 4 4 4 3 1 1 1 1 0 1 2 3 4 5 5 5 6 6 6 6 6 7 8 10 10 11 11 12 13 14 15 16 17 19 20 21 22 23 24 24 21 17 13 10 9 8 8 8 7 7 7
3 4 8 7 6 4 3 6 6 3 2 2 4 2 5 5 3 6 4 2 8 10 10 14 17 17 18 19 20 20 19 17 13 10 10 12 13 13 13 11 10 9 8 7 5 5 4 4 4 3 2 1 1 1 0 2 2 3 4 5 4 4 6 6 7 7 7 7 8 10 10 10 11 11 12 12 13 14 16 17 18 19 20 21 22 23 23 22 20 18 16 14 12 9 7 6 6
2 5 9 8 7 7 7 8 6 3 4 3 3 4 3 5 4 6 4 3 7 6 7 13 15 15 17 20 21 20 19 17 13 10 10 11 12 14 14 12 10 7 6 6 6 5 4 4 4 3 2 2 2 1 0 1 2 2 3 4 3 4 6 6 7 7 7 7 8 9 11 11 11 11 11 11 11 13 14 15 16 17 18 19 20 21 21 22 22 22 21 19 17 15 10 6 5
3 5 6 8 7 7 8 8 4 2 2 3 4 4 1 4 5 5 2 3 5 6 6 9 13 15 17 19 20 19 19 17 13 11 10 11 12 13 13 11 9 6 6 7 7 6 5 5 4 4 3 3 2 2 1 1 1 2 3 3 3 4 5 5 5 5 6 6 7 8 9 10 11 11 11 11 11 11 13 13 14 15 15 16 18 18 19 20 21 21 21 21 20 18 15 11 7
6 2 8 7 6 6 6 6 3 1 2 2 4 2 1 4 6 5 2 2 5 7 8 8 12 16 17 19 20 19 19 18 14 11 11 11 11 12 10 9 8 6 7 7 6 5 5 5 5 4 4 3 3 2 1 0 1 1 2 3 3 4 5 5 5 5 5 6 6 7 8 8 9 10 10 10 11 11 12 12 13 13 13 14 15 17 17 17 18 19 20 21 21 19 18 15 12
4 6 11 7 7 6 4 5 3 3 3 3 5 2 2 4 6 3 3 1 6 8 7 7 11 15 16 19 20 19 20 19 15 12 11 10 9 10 10 9 8 7 7 7 7 6 6 6 6 5 4 4 4 3 2 1 0 1 1 2 3 4 4 5 6 5 5 5 6 7 6 7 8 9 10 10 10 11 11 12 13 13 13 13 14 15 16 16 16 17 18 19 20 19 18 17 16
5 7 8 7 6 5 4 3 4 3 2 5 6 5 5 2 5 3 2 3 6 6 5 5 8 13 16 19 20 20 22 21 17 13 12 11 10 10 10 10 9 8 8 8 8 8 7 7 6 6 5 5 5 4 2 1 1 1 2 2 3 3 4 5 5 5 4 5 5 6 6 6 7 8 9 9 10 10 11 11 12 13 13 13 13 14 15 15 15 16 17 17 17 18 17 16 16
6 5 5 5 4 4 4 4 3 2 4 6 4 3 6 1 5 4 5 6 5 6 6 6 8 14 20 21 22 23 23 22 18 15 14 13 13 12 11 12 11 11 10 8 9 9 8 8 7 7 6 6 5 4 3 2 1 1 2 2 2 3 4 4 3 4 4 5 5 5 6 6 6 7 7 8 10 10 11 11 12 13 13 13 13 14 14 15 15 15 16 16 16 16 16 15 14
6 6 6 5 2 3 2 2 1 2 5 3 1 2 3 4 7 6 7 8 6 8 11 11 13 19 23 24 25 25 25 24 20 17 15 15 15 14 13 13 13 13 11 8 9 9 9 8 8 8 7 6 6 5 4 3 2 2 2 2 2 2 2 2 4 6 6 6 7 7 8 8 8 8 7 8 9 11 11 12 13 13 13 13 13 13 14 14 14 14 14 15 15 15 15 14 13
5 6 5 4 3 3 1 3 1 2 4 2 2 2 1 4 5 5 7 8 9 13 15 16 19 22 25 27 27 26 26 25 22 19 17 15 16 15 14 13 13 14 12 9 9 10 9 9 9 8 8 8 7 6 5 4 4 3 3 3 2 1 2 4 6 8 9 9 9 9 10 10 10 10 9 9 10 11 11 12 12 12 12 12 12 12 13 13 13 13 13 13 13 13 13 13 13
2 3 6 5 4 4 3 3 3 3 2 2 2 2 2 2 3 4 7 8 8 12 13 13 16 19 21 23 24 26 26 25 23 21 18 16 15 15 14 12 13 15 13 11 11 11 11 9 8 8 9 9 8 7 7 6 5 4 3 2 2 2 4 5 7 8 9 9 9 10 10 11 11 11 10 10 10 11 11 12 12 12 12 12 12 12 13 13 13 13 13 12 12 12 13 13 13
1 2 5 3 4 5 2 2 4 4 1 1 1 3 3 4 5 5 4 4 1 5 8 9 12 14 14 16 20 24 26 26 24 22 20 17 15 15 14 13 13 15 15 14 13 13 11 10 8 8 9 9 8 8 8 6 5 4 4 3 3 5 6 6 7 8 8 8 9 9 10 10 10 10 10 10 10 11 11 12 12 12 13 13 13 13 13 13 14 14 14 14 13 12 13 14 13
1 1 3 4 4 8 5 1 0 3 3 1 1 3 4 3 3 5 5 5 4 2 4 8 10 11 12 15 19 23 26 26 25 23 20 18 16 15 15 13 14 17 17 16 16 14 12 10 8 7 9 10 9 8 8 7 5 5 4 4 5 7 7 8 8 8 8 8 8 9 9 9 9 9 10 10 10 10 11 11 12 12 12 13 13 14 14 14 15 15 16 16 15 14 15 15 15
5 3 5 3 3 5 5 2 3 4 2 2 2 2 4 2 2 5 6 3 0 1 2 4 7 11 13 16 19 22 25 26 25 23 20 18 17 16 15 13 14 18 18 17 17 16 14 11 9 9 10 10 8 7 7 7 6 5 5 6 7 7 7 8 7 7 7 7 8 8 8 9 9 9 9 9 9 10 10 11 11 11 12 13 13 14 15 15 16 16 16 17 17 16 17 17 17
4 5 5 4 3 1 2 2 1 1 1 3 4 3 3 3 4 4 3 4 6 4 2 3 6 12 16 18 19 20 23 24 25 24 21 19 18 16 15 12 14 19 19 17 17 16 15 13 11 10 10 9 8 8 8 7 7 7 8 8 8 8 7 7 7 6 7 8 8 8 7 7 7 8 8 8 9 9 9 10 11 12 12 13 14 14 15 16 17 17 17 17 18 18 19 19 19
4 3 3 2 3 4 3 2 2 3 3 2 3 4 3 5 5 5 7 9 8 7 6 5 9 15 19 20 20 21 23 25 26 24 22 20 18 17 15 13 14 18 19 18 17 17 15 14 12 12 11 10 10 10 9 10 9 9 9 9 8 7 7 6 6 6 7 7 7 6 5 5 5 5 6 7 7 8 9 10 11 12 13 14 15 15 16 17 18 18 18 18 18 19 20 20 20
2 2 0 1 2 2 2 2 2 3 4 3 1 1 5 6 4 7 9 9 8 10 9 7 12 17 19 20 22 22 24 25 26 24 22 20 19 17 15 13 13 16 17 18 18 16 15 14 14 13 13 12 12 11 12 11 11 10 9 9 8 7 6 5 5 6 6 5 4 3 3 3 4 5 5 6 7 9 10 11 13 14 16 17 17 18 19 19 20 20 20 21 20 20 20 20 20
5 4 4 3 3 4 3 1 1 2 3 4 4 2 7 6 4 6 8 7 9 11 10 9 15 19 19 21 22 22 23 24 25 24 21 20 19 18 16 14 13 15 17 18 17 15 15 15 15 14 14 14 13 13 13 12 11 10 9 8 7 6 5 5 5 5 4 2 1 1 2 3 4 6 7 8 10 11 12 14 16 17 19 20 21 21 21 21 22 22 22 22 22 21 21 20 20
Wind_Direction
131 122 116 118 132 138 134 127 118 355 77 95 320 2 273 290 27 15 350 339 64 15 4 26 56 71 89 106 120 107 70 86 176 146 156 156 144 168 182 170 155 143 141 135 131 119 93 85 63 53 53 48 45 45 43 42 39 36 35 35 34 33 34 35 36 37 39 43 45 36 27 22 22 21 21 24 25 30 37 17 347 341 329 311 317 330 338 339 338 340 333 323 315 312 306 297 295
118 118 119 126 134 143 156 103 101 344 63 79 302 177 276 331 48 4 308 313 3 336 350 32 59 61 78 102 104 91 54 55 144 130 127 140 141 151 157 156 158 150 148 145 137 125 98 67 58 58 57 50 46 45 42 41 40 39 37 36 34 33 33 34 35 35 34 35 38 36 29 20 18 18 23 28 21 19 29 29 356 340 332 322 318 331 345 347 342 336 334 332 324 313 301 294 295
119 122 124 126 126 137 146 67 82 83 92 133 275 268 317 22 119 222 263 310 341 337 336 2 34 35 55 84 68 68 75 88 110 117 123 135 141 140 145 152 158 160 166 160 126 103 78 62 62 62 60 52 48 47 45 44 41 40 37 34 33 31 28 27 28 30 32 32 29 25 23 25 24 17 16 27 23 13 16 16 6 344 333 331 323 328 337 341 334 325 338 340 322 309 299 293 294
116 124 127 129 118 118 99 52 114 117 127 181 249 286 343 182 233 251 317 4 4 3 16 6 22 36 53 72 57 73 93 107 107 116 126 134 143 138 142 146 147 152 156 145 113 96 80 72 70 69 64 57 53 47 42 39 35 32 30 27 25 25 23 22 21 22 27 28 28 21 14 15 22 25 11 9 3 358 5 3 6 349 336 336 332 335 331 332 327 323 342 339 317 311 300 293 295
109 119 122 150 187 113 87 74 107 95 162 180 164 271 286 219 253 289 338 28 24 29 46 29 31 49 64 68 38 81 96 109 108 116 127 134 139 133 137 133 132 140 140 133 110 93 87 80 75 76 67 57 50 42 38 32 29 27 24 23 22 22 21 21 20 20 22 24 27 25 20 9 7 22 21 359 340 342 350 351 356 337 328 330 334 341 331 327 324 322 322 318 318 312 299 301 304
107 108 87 94 115 105 105 98 93 82 196 179 162 246 250 225 245 298 332 43 45 62 85 57 64 57 63 55 41 98 96 100 118 117 126 133 135 130 129 126 130 135 131 121 105 94 88 83 78 73 62 54 45 39 35 31 29 28 26 25 23 21 19 19 16 15 16 19 26 23 19 8 359 1 9 10 323 319 332 355 355 328 320 328 336 343 339 329 323 326 306 300 308 305 307 320 314
103 101 69 103 84 55 100 113 136 162 221 185 182 229 238 246 275 3 353 47 49 68 100 86 93 89 65 52 61 99 70 104 125 120 132 136 133 126 123 126 129 124 118 111 102 98 88 79 72 62 55 47 40 34 30 30 28 26 24 20 18 12 12 15 11 10 9 7 15 15 10 11 9 351 345 7 310 303 325 354 355 323 320 331 332 337 345 338 329 325 298 293 297 298 322 341 326
87 81 46 102 50 35 87 96 148 191 219 197 203 225 235 260 114 87 38 73 41 70 103 93 93 94 48 10 77 102 115 135 129 132 139 133 126 123 123 123 119 115 111 108 103 98 85 73 63 55 50 41 35 32 28 26 22 18 15 12 10 3 4 9 5 2 3 360 3 8 9 14 25 18 345 2 315 291 315 326 343 313 316 331 322 327 346 332 321 321 304 305 308 314 352 354 332
65 46 63 80 71 45 62 52 176 212 240 229 222 245 245 226 116 114 90 86 128 119 98 114 96 108 110 25 75 115 128 138 140 143 134 125 123 120 120 115 111 112 108 105 102 90 79 67 57 50 43 38 34 30 26 21 16 13 10 9 7 3 3 7 3 357 357 354 357 12 15 8 20 33 28 32 292 276 306 322 323 302 301 314 308 317 331 321 317 329 328 330 331 349 22 11 344
29 64 105 79 79 55 43 30 248 245 260 263 253 258 276 150 126 125 127 100 148 131 135 187 108 110 121 66 66 122 135 150 150 144 131 124 122 118 115 111 107 105 102 97 90 75 69 61 51 42 36 33 28 25 22 19 17 12 10 12 10 10 12 14 8 359 357 352 358 19 22 7 12 31 47 128 219 244 258 311 303 291 287 288 292 301 312 327 325 335 341 345 353 8 26 16 2
358 58 94 78 68 74 145 195 242 267 281 335 332 245 189 146 135 114 123 114 163 143 148 184 139 112 113 76 106 151 151 153 148 139 132 127 120 118 114 109 104 98 95 84 75 65 59 54 42 32 29 27 21 20 18 18 18 11 9 16 17 19 22 20 13 6 2 353 356 13 16 10 10 25 50 95 173 204 221 231 257 271 274 281 304 298 310 339 332 339 347 351 5 15 18 5 4
347 12 71 86 104 143 171 174 239 283 312 345 308 198 158 156 147 142 151 129 132 118 155 196 164 127 103 68 160 164 156 147 144 141 135 130 122 120 115 106 101 97 91 79 69 59 52 43 33 26 25 24 18 18 17 18 15 8 12 18 20 26 28 22 18 14 4 353 357 11 17 15 11 24 54 77 98 143 209 150 187 257 283 296 332 328 331 353 344 348 353 352 3 16 19 4 6
84 131 82 100 161 147 144 150 253 301 323 278 205 163 157 165 174 176 159 129 124 115 294 153 148 133 96 118 164 165 156 148 142 138 134 130 125 119 115 109 103 96 87 76 60 49 44 35 28 26 24 21 18 19 20 19 12 11 20 22 25 31 31 24 20 18 7 0 7 12 9 7 10 31 66 76 74 74 100 106 99 50 45 41 16 2 359 9 3 358 358 355 3 19 28 11 17
139 147 99 112 95 122 147 150 230 214 269 250 182 164 172 152 165 172 144 118 176 292 168 147 145 126 112 134 170 173 159 153 144 134 135 128 123 116 115 114 103 92 81 68 53 43 38 32 27 27 25 21 18 20 21 17 14 18 24 25 32 34 30 24 20 20 15 10 16 12 351 342 347 12 93 103 111 117 108 100 90 56 48 41 26 15 11 17 14 1 354 352 1 20 34 28 23
189 132 92 108 59 66 178 185 162 154 235 238 174 167 148 101 147 172 138 106 321 23 131 148 151 115 160 169 176 177 162 155 149 138 141 131 126 121 121 119 102 91 76 60 49 40 36 31 26 26 24 21 18 19 21 18 19 23 24 28 35 34 29 24 18 20 21 11 17 12 349 337 335 337 125 131 127 122 98 73 60 35 47 38 24 23 16 15 17 3 347 342 359 15 22 30 32
166 131 72 92 122 194 206 186 129 125 238 227 167 155 107 78 126 159 160 120 103 123 123 145 168 119 171 175 160 165 158 155 153 148 150 141 138 134 130 124 102 85 68 55 45 36 34 29 24 25 24 20 18 20 22 23 25 25 27 33 37 32 28 25 19 20 22 11 11 7 358 1 358 359 63 92 101 96 82 66 51 29 40 37 31 34 28 22 18 4 351 353 9 18 14 25 44
153 121 66 96 162 198 202 183 168 157 212 203 167 159 112 87 113 126 143 142 134 143 148 250 202 193 193 172 150 155 156 156 158 158 159 153 153 145 134 122 96 76 62 51 40 34 32 27 23 25 23 19 20 23 26 30 30 30 38 42 37 30 27 24 21 21 23 17 15 10 6 22 37 51 58 65 80 79 73 62 54 43 35 36 35 29 28 29 23 11 2 7 17 21 18 31 47
145 100 81 181 185 192 197 185 191 160 154 174 173 164 132 124 128 130 118 123 128 128 199 241 219 225 222 164 153 156 157 158 163 163 163 162 159 148 132 116 90 72 58 49 37 32 30 24 23 24 21 18 22 27 31 37 35 39 47 45 34 26 24 22 21 23 25 25 20 11 6 16 33 52 58 56 62 69 65 53 44 37 27 25 27 22 22 26 26 21 13 15 20 17 16 32 42
94 97 90 235 202 200 210 177 190 165 141 153 158 149 124 128 142 143 121 114 123 109 216 216 185 186 168 158 158 158 158 161 167 167 166 164 155 142 119 98 80 66 54 45 34 30 27 23 23 23 19 17 24 31 34 43 44 46 48 41 30 21 22 22 21 24 27 29 25 13 7 0 357 14 33 46 59 70 67 60 41 35 27 17 20 23 23 25 25 23 20 20 21 18 14 25 37
93 101 112 246 209 202 258 183 192 178 152 141 134 141 122 132 150 146 131 114 125 142 175 175 148 148 152 157 159 158 161 167 172 173 172 167 156 136 97 75 67 58 47 37 30 28 22 20 21 20 17 17 28 35 39 48 48 45 41 33 24 18 22 24 24 28 30 32 34 27 17 5 355 354 354 0 23 41 47 44 25 24 21 18 25 30 29 29 25 21 18 15 20 25 20 22 33
140 132 181 229 185 153 282 178 169 161 152 140 131 133 122 138 158 148 134 109 341 199 177 174 156 152 154 157 159 162 168 174 177 181 181 175 161 139 101 79 64 44 34 27 24 24 19 18 19 18 16 19 30 39 43 48 46 38 29 24 20 17 24 29 30 30 31 34 39 39 28 13 11 11 1 345 346 3 17 22 14 10 10 12 24 34 35 38 33 24 16 13 20 27 29 32 33
149 218 219 187 156 122 112 140 142 147 143 135 131 131 135 136 134 144 140 117 221 191 180 172 158 154 155 157 161 168 173 179 182 186 187 183 173 161 127 98 57 17 24 19 17 18 16 15 16 18 17 19 30 39 44 46 43 30 18 17 15 18 29 34 35 34 31 32 37 42 41 34 28 24 15 358 358 6 6 12 15 11 7 7 21 32 34 42 43 32 22 19 23 26 33 35 27
145 287 247 159 157 130 127 130 135 145 136 130 135 134 136 119 108 140 141 120 164 167 169 160 155 156 157 159 166 173 178 183 186 188 190 189 186 192 141 113 288 317 357 2 10 13 12 12 12 16 16 17 26 34 41 45 39 17 10 10 9 19 34 38 39 38 35 34 35 37 37 37 32 25 19 10 11 11 4 12 17 10 8 15 28 31 29 38 45 37 27 25 25 27 32 33 27
182 334 0 143 132 113 131 131 131 140 131 130 135 129 127 119 120 142 110 128 147 160 163 157 157 158 160 166 173 178 182 186 190 194 199 207 215 238 242 246 255 258 292 341 3 8 9 7 8 12 12 12 21 30 38 46 34 9 3 2 5 21 38 39 39 40 38 38 40 41 36 29 21 15 10 8 8 2 358 8 13 6 8 27 37 34 29 33 39 37 25 22 24 25 30 33 30
169 26 70 117 95 105 119 122 123 120 120 130 127 122 127 123 125 121 115 133 147 159 159 159 160 163 169 175 179 184 189 193 198 203 209 226 230 229 234 238 242 253 276 321 353 4 6 2 5 10 8 7 20 35 45 51 33 3 355 353 5 22 36 38 36 36 35 37 40 42 41 34 26 16 5 360 357 353 357 358 359 2 9 32 43 36 33 31 32 34 23 17 23 24 27 31 32
227 117 124 120 104 112 111 110 116 111 124 134 116 111 132 125 111 81 130 144 151 158 159 163 164 169 176 181 187 193 199 201 202 206 214 222 218 220 222 227 239 249 266 308 343 357 1 358 3 8 4 6 24 43 54 62 41 355 344 349 5 19 31 34 33 32 29 29 32 33 33 30 25 19 8 0 355 348 357 348 345 358 7 29 46 39 35 29 25 29 25 23 26 27 28 33 35
106 97 100 107 107 113 114 112 116 109 129 141 126 129 144 136 117 111 171 155 157 161 162 168 171 176 181 186 194 197 203 205 205 213 218 217 212 213 215 222 237 232 246 310 345 352 358 356 0 5 3 6 26 52 61 62 41 343 336 348 1 11 21 28 29 28 24 21 23 25 23 20 17 15 11 9 18 21 7 350 334 342 352 15 42 41 35 22 15 20 21 25 28 28 30 36 38
120 108 86 71 90 100 114 124 137 112 120 145 136 130 129 86 125 168 170 161 165 168 168 175 180 184 188 191 196 198 204 206 216 225 223 224 221 217 220 229 241 244 259 315 344 347 354 353 357 2 1 9 33 56 60 48 23 341 334 346 355 0 10 19 23 23 20 17 18 21 21 15 11 13 15 21 31 35 26 8 325 317 339 1 18 30 31 16 2 2 3 10 18 22 21 31 38
122 112 85 43 61 84 127 133 163 121 133 158 138 81 357 356 132 162 165 164 172 176 176 184 190 194 195 196 198 201 208 211 222 228 229 235 237 235 235 242 256 271 275 299 334 343 345 346 353 356 359 17 51 64 61 48 29 0 340 343 351 355 3 13 19 19 18 19 21 24 22 15 10 12 21 32 36 35 30 19 348 320 335 351 359 8 17 10 348 333 339 349 2 13 14 24 40
84 78 84 57 27 46 168 133 155 96 150 177 146 38 294 305 202 166 166 169 175 181 186 191 196 200 200 201 204 208 210 215 224 228 233 239 244 249 246 248 260 264 258 283 332 342 337 341 348 348 354 29 73 74 69 58 41 14 350 348 353 358 4 12 17 17 17 21 25 27 24 18 13 15 28 42 41 37 34 28 17 356 343 339 341 346 358 3 344 314 316 329 347 5 14 27 49
52 37 52 58 55 277 288 141 146 92 180 197 124 76 227 282 240 173 173 178 180 186 193 197 201 203 204 207 211 214 212 217 228 231 235 240 246 250 245 249 257 251 253 285 325 330 327 332 339 337 344 39 85 77 74 68 49 29 8 358 359 5 10 13 15 14 15 20 26 28 27 24 19 21 33 48 47 40 38 36 30 18 2 346 335 335 345 354 348 327 319 329 346 360 7 21 50
41 69 346 356 96 262 300 214 157 133 190 211 97 90 247 276 234 185 181 186 188 195 201 203 208 209 212 215 217 220 219 223 232 234 235 238 244 247 244 250 255 254 263 281 298 309 316 321 328 325 327 37 84 70 71 64 41 34 22 10 6 11 16 16 13 11 11 16 22 26 29 29 27 27 35 46 49 42 36 35 32 24 11 358 345 338 336 343 350 349 335 331 345 356 0 14 49
4 91 200 300 86 304 298 252 187 149 119 355 101 140 245 270 231 192 188 194 194 202 211 212 216 219 221 225 227 229 228 231 234 233 233 235 239 242 244 251 254 258 267 273 286 305 312 314 318 309 309 347 39 37 43 25 22 27 24 18 12 19 25 20 14 10 9 13 18 21 27 30 30 31 35 40 43 40 34 30 28 24 14 5 355 348 348 352 358 359 349 338 342 353 357 12 52
322 42 72 240 156 191 258 291 242 143 115 140 104 101 244 270 262 193 195 200 198 207 217 221 224 227 230 232 235 237 237 238 234 227 229 233 236 238 240 246 249 255 264 266 275 293 295 299 301 288 301 318 307 349 18 8 10 20 27 30 21 28 33 23 13 7 8 9 13 16 20 26 29 32 35 37 39 37 33 30 26 20 14 14 7 2 10 22 22 15 9 1 354 359 3 16 58
212 166 99 254 181 182 211 251 218 148 119 166 142 297 262 275 296 214 204 202 203 213 221 226 229 232 236 238 239 242 243 242 235 228 230 232 235 237 238 241 247 253 260 257 254 258 260 266 272 275 305 333 309 326 1 7 14 23 29 32 25 32 36 26 11 4 8 6 7 12 15 22 28 30 33 36 38 37 34 32 29 22 16 24 34 30 39 49 45 32 25 20 11 11 22 41 60
162 167 144 161 185 231 221 238 213 156 125 167 175 227 259 269 279 230 209 204 210 221 226 230 233 236 239 242 244 246 248 247 241 234 233 232 234 237 237 241 247 251 256 252 243 245 252 253 255 272 319 349 327 325 349 6 21 25 27 30 26 33 38 30 11 1 6 4 4 10 15 21 26 30 32 34 37 37 35 34 34 33 31 34 71 96 95 77 57 38 24 21 14 11 25 55 65
127 132 118 160 196 265 242 244 216 153 136 218 196 214 257 262 266 240 213 207 216 228 233 235 236 239 241 244 247 249 253 256 252 245 237 233 234 235 239 242 243 247 249 242 235 243 251 241 232 247 316 350 342 331 350 12 32 32 27 31 32 38 41 34 14 1 2 3 4 10 16 21 25 28 30 32 35 36 35 34 36 39 38 40 63 98 96 76 54 39 23 20 22 22 36 56 69
102 129 128 165 211 251 256 231 183 157 153 233 181 203 256 260 265 245 207 201 221 225 226 233 237 240 244 247 251 253 258 262 260 254 243 235 232 232 238 240 240 247 246 235 232 238 240 226 216 221 283 337 345 337 354 17 36 36 26 27 33 36 39 37 24 4 358 2 6 10 17 21 24 26 28 30 33 34 34 33 35 39 41 42 52 79 91 73 53 41 29 27 29 34 44 49 59
88 118 133 186 221 231 295 355 152 160 171 254 175 190 253 268 262 229 198 205 226 225 224 233 236 238 244 249 254 256 258 262 263 258 249 239 233 231 235 237 240 247 242 234 232 226 217 211 211 213 251 328 352 350 357 28 34 29 19 20 27 27 30 38 36 19 5 4 8 11 15 19 22 25 27 28 30 32 34 33 33 37 41 45 49 59 75 72 53 36 31 29 22 25 42 50 53
106 117 131 239 231 160 262 334 136 154 150 166 161 190 272 290 287 254 216 216 230 235 234 241 242 243 249 254 259 259 261 265 264 260 251 238 231 229 230 233 237 239 229 224 226 220 209 202 205 206 220 331 353 341 335 59 43 22 12 13 19 25 33 44 45 34 19 6 7 13 15 17 22 25 26 27 29 32 34 36 35 35 39 44 46 49 53 53 45 27 21 16 8 14 30 40 45
256 161 168 217 200 170 191 152 127 105 356 101 110 52 313 302 281 273 250 228 235 242 240 244 246 247 254 259 261 261 264 267 262 256 245 231 227 225 224 226 230 230 219 215 220 217 212 204 201 200 205 300 323 279 280 58 39 17 10 8 13 29 42 47 44 38 33 16 6 12 16 18 22 25 25 25 26 30 34 37 37 36 37 41 43 44 47 48 46 37 26 15 6 9 16 19 25
301 224 202 195 167 148 126 122 113 97 279 254 108 81 299 310 278 256 279 244 233 239 236 239 240 239 246 252 257 261 262 260 253 250 237 224 222 216 213 215 219 220 212 208 211 209 210 209 206 207 216 257 262 254 321 61 41 23 15 8 14 38 44 44 42 41 44 35 17 15 18 20 23 23 23 23 24 27 30 34 36 36 36 38 40 40 42 45 45 43 39 33 28 24 16 7 13
315 240 204 182 144 122 135 139 123 138 227 266 97 137 257 315 296 264 283 229 237 254 241 240 238 231 235 245 253 257 255 248 238 234 228 218 212 207 206 208 211 208 200 200 202 201 205 207 211 215 221 232 228 230 93 64 46 39 29 15 24 44 44 42 42 43 45 42 30 20 17 19 23 23 23 23 24 25 26 29 33 34 33 34 36 38 38 40 41 42 40 38 38 35 32 27 22
235 247 166 152 138 137 161 154 136 168 197 346 32 114 149 308 274 279 293 206 255 278 254 248 239 227 231 241 247 250 246 238 227 220 214 206 202 202 202 203 206 200 195 202 200 198 202 204 211 215 218 227 223 214 176 62 41 47 39 28 33 41 40 37 38 37 37 36 32 25 16 14 18 23 24 23 25 26 26 27 29 31 32 30 32 34 34 34 36 39 39 38 38 36 35 34 29
246 225 102 124 129 135 159 140 117 47 80 332 318 79 104 276 274 315 20 179 266 264 242 241 233 227 227 233 241 242 237 228 220 214 203 197 195 194 193 195 203 202 199 205 200 195 199 201 209 216 216 219 215 203 181 101 38 46 39 35 32 28 27 24 22 21 24 26 24 25 19 10 13 20 23 23 23 24 24 24 25 27 28 27 28 30 31 30 29 32 35 36 36 35 35 34 31
223 111 89 87 79 82 103 110 101 37 49 249 255 157 127 276 281 330 33 251 256 249 244 238 229 227 224 228 233 231 225 219 214 210 200 194 190 188 193 196 199 201 201 203 198 194 199 205 214 218 214 207 202 198 187 196 352 24 14 13 14 12 12 10 9 8 12 17 15 18 19 12 12 16 18 20 20 20 20 20 20 22 24 24 24 26 29 30 27 26 28 31 32 33 33 33 32
129 96 77 69 51 51 57 62 86 61 345 262 240 171 128 309 280 242 191 224 220 217 246 244 224 226 222 223 226 220 216 213 210 207 199 194 192 191 197 199 197 198 198 198 197 196 201 209 217 218 212 204 202 205 208 224 261 305 322 336 350 357 2 3 9 12 14 21 19 17 18 13 12 13 14 18 22 24 24 24 25 27 28 27 27 28 29 30 29 27 26 26 27 28 29 29 30
94 87 86 83 18 17 33 4 50 102 266 274 258 151 118 164 264 244 232 240 215 191 213 214 205 218 219 217 217 214 211 210 208 206 201 197 196 193 193 195 196 197 195 193 194 196 200 208 214 214 212 210 211 214 216 226 250 278 300 318 334 347 359 11 31 43 42 43 38 32 30 25 21 18 16 23 34 42 45 45 45 45 45 43 40 38 37 35 33 30 26 24 23 23 23 23 24
82 94 94 91 20 15 25 324 48 203 249 265 226 130 119 226 249 254 251 248 229 208 209 203 199 210 216 216 213 210 209 209 207 206 204 201 199 196 193 194 197 197 195 193 194 195 197 202 209 209 209 215 218 219 217 221 239 260 279 291 305 328 9 77 79 72 69 65 62 59 57 54 47 40 37 40 50 58 60 59 56 53 51 49 46 44 41 39 36 32 28 25 22 20 18 17 15
134 131 121 121 101 72 307 274 293 255 263 278 237 210 304 280 263 241 248 259 238 221 216 210 207 212 217 218 213 209 209 208 207 208 207 205 203 199 197 197 200 201 199 195 191 187 186 192 199 202 206 212 216 220 220 221 235 254 265 273 277 263 121 107 90 78 73 69 66 65 62 60 57 54 52 51 52 53 52 50 48 44 42 39 37 34 32 30 27 26 24 21 18 14 12 10 7
165 143 125 141 147 139 197 217 196 224 263 307 278 205 172 240 254 238 256 280 254 226 224 217 213 216 218 217 212 208 209 209 208 210 210 209 207 205 204 204 204 203 202 198 186 177 177 181 188 197 203 208 211 217 221 221 234 245 240 238 216 152 131 108 90 80 72 67 63 60 58 58 59 58 57 53 48 44 39 37 34 31 28 25 23 21 18 16 13 11 10 8 8 3 359 360 356
279 118 107 155 179 137 121 175 175 176 151 37 247 222 212 220 262 293 311 327 292 203 211 207 205 211 213 211 209 209 210 210 209 210 212 212 211 211 211 212 210 205 203 200 190 182 182 183 187 195 197 199 205 213 217 219 224 221 207 194 162 138 127 108 92 82 76 70 64 61 58 57 57 56 54 51 46 41 36 32 27 23 19 15 12 9 6 3 360 359 357 356 356 351 346 347 344
139 144 172 214 165 116 110 170 63 85 129 202 254 261 296 315 289 319 22 47 47 95 174 189 194 200 206 208 209 209 210 211 210 210 213 213 213 215 215 217 214 206 203 201 196 193 193 193 198 201 196 197 205 209 205 203 204 196 183 165 144 131 119 107 96 87 80 72 64 60 57 55 52 48 45 41 38 35 30 26 22 18 13 8 4 360 356 354 351 350 350 349 348 343 338 339 337
118 190 198 180 111 97 108 118 20 40 163 267 321 270 292 333 283 321 11 49 91 145 149 168 182 194 206 211 210 211 211 211 210 210 213 214 215 217 217 221 215 203 201 201 198 199 198 199 205 207 205 204 204 196 183 183 185 173 161 148 137 129 117 106 98 90 81 72 67 63 60 56 51 43 37 32 26 22 16 10 6 3 359 356 352 349 345 342 339 338 340 340 340 336 332 335 335
123 176 155 117 132 157 104 123 127 103 178 283 316 304 266 207 219 281 290 213 205 200 174 161 183 198 207 211 210 210 211 211 209 209 212 215 216 218 220 225 211 199 200 201 199 201 199 199 205 203 200 198 192 183 172 169 165 155 150 144 138 129 117 108 99 91 83 77 73 67 61 56 48 37 26 18 13 7 1 354 349 346 344 341 337 335 332 329 326 325 326 327 329 326 322 326 328
49 90 76 72 135 157 152 143 153 143 153 234 311 331 273 228 215 204 213 213 193 185 192 197 206 208 207 208 207 207 210 211 209 209 211 214 216 218 223 228 210 197 199 200 199 202 201 202 202 192 185 183 179 173 164 157 151 147 145 140 135 126 117 112 101 92 90 85 80 69 58 51 40 21 5 358 355 349 345 341 337 334 331 328 324 322 320 318 316 315 316 316 316 315 313 315 318
76 78 60 2 66 127 147 90 81 121 139 177 171 300 265 251 210 189 206 212 193 190 194 200 213 213 211 211 208 208 211 212 210 208 210 213 216 217 224 226 210 199 201 201 202 206 206 204 197 186 180 177 171 163 156 151 147 145 143 138 133 128 121 115 106 104 106 102 86 60 39 25 9 350 339 336 334 331 329 327 326 323 320 318 315 313 311 309 309 308 308 308 307 306 305 306 309
150 156 186 174 126 127 120 65 325 90 115 167 156 202 267 260 210 201 205 196 200 205 192 191 212 215 213 212 210 211 213 212 210 208 208 213 215 216 222 220 206 199 200 201 203 206 205 200 192 184 179 173 165 160 154 151 149 147 146 143 139 138 135 129 128 130 132 132 91 349 336 329 325 318 315 316 317 318 318 318 318 317 315 314 313 313 311 309 309 307 306 305 303 301 300 300 301